Weather History for KLUX - March, 2013

Change the Weather History Date:

Wednesday, March 6, 2013

  Actual Average (KGSP) Record (KGSP)
Temperature  
Mean Temperature 41 °F 50 °F  
Max Temperature 50 °F 62 °F 79 °F (1974)
Min Temperature 32 °F 39 °F 16 °F (1960)
Degree Days  
Heating Degree Days 24 15  
Month to date heating degree days 93  
Since 1 July heating degree days 2542  
Cooling Degree Days 0 0  
Month to date cooling degree days 0  
Year to date cooling degree days 0  
Moisture  
Dew Point 26 °F    
Average Humidity 60    
Maximum Humidity 87    
Minimum Humidity 35    
Precipitation  
Precipitation 0.00 in 0.15 in 2.16 in (1996)
Month to date precipitation 0.87  
Year to date precipitation 8.66  
Snow  
Snow 0.00 in 0.00 in 1.00 in (1899)
Month to date snowfall 0.2  
Since 1 July snowfall 4.0  
Snow Depth -    
Sea Level Pressure  
Sea Level Pressure 29.92 in    
Wind  
Wind Speed 14 mph (WNW)    
Max Wind Speed 21 mph    
Max Gust Speed 36 mph    
Visibility 10 miles    
Events      
T = Trace of Precipitation, MM = Missing Value Source: NWS Daily Summary

Daily Weather History Graph

Daily Weather History Graph

Search for Another Location

Airport or City:

Trip Planner

Search our weather history database for the weather conditions in past years. The results will help you decide how hot, cold, wet, or windy it might be!

Date:

Astronomy

Mar. 06, 2013 Rise Set
Actual Time 6:50 AM EST 6:28 PM EST
Civil Twilight 6:24 AM EST 6:53 PM EST
Nautical Twilight 5:55 AM EST 7:22 PM EST
Astronomical Twilight 5:26 AM EST 7:51 PM EST
Moon 2:47 AM EST 1:18 PM EST
Length of Visible Light 12h 28m
Length of Day
11h 38m
Waning Crescent, 30% of the Moon is Illuminated
Mar 6
Waning Crescent
Mar 11
New
Mar 19
First Quarter
Mar 27
Full
Apr 3
Last Quarter

Hourly Weather History & Observations

Time (EST) Temp. Windchill Dew Point Humidity Pressure Visibility Wind Dir Wind Speed Gust Speed Precip Events Conditions
12:15 AM 42.8 °F 34.3 °F 32.0 °F 66% 29.73 in 10.0 mi West 19.6 mph 35.7 mph N/A   Clear
12:35 AM 42.8 °F 34.5 °F 30.2 °F 61% 29.73 in 10.0 mi West 18.4 mph 31.1 mph N/A   Scattered Clouds
12:55 AM 41.0 °F 32.5 °F 30.2 °F 65% 29.75 in 10.0 mi West 17.3 mph 26.5 mph N/A   Scattered Clouds
1:15 AM 41.0 °F 32.8 °F 28.4 °F 61% 29.75 in 10.0 mi West 16.1 mph 26.5 mph N/A   Mostly Cloudy
1:35 AM 41.0 °F 32.8 °F 28.4 °F 61% 29.76 in 10.0 mi West 16.1 mph 26.5 mph N/A   Mostly Cloudy
1:55 AM 39.2 °F 30.8 °F 28.4 °F 65% 29.76 in 10.0 mi West 15.0 mph 27.6 mph N/A   Scattered Clouds
2:15 AM 39.2 °F 30.2 °F 28.4 °F 65% 29.76 in 10.0 mi West 17.3 mph 32.2 mph N/A   Overcast
2:35 AM 39.2 °F 31.6 °F 26.6 °F 61% 29.76 in 10.0 mi West 12.7 mph 24.2 mph N/A   Mostly Cloudy
2:55 AM 37.4 °F 29.8 °F 26.6 °F 65% 29.75 in 10.0 mi West 11.5 mph 21.9 mph N/A   Scattered Clouds
3:15 AM 37.4 °F 27.8 °F 26.6 °F 65% 29.75 in 10.0 mi West 17.3 mph 25.3 mph N/A   Clear
3:35 AM 37.4 °F 28.9 °F 26.6 °F 65% 29.75 in 10.0 mi West 13.8 mph 28.8 mph N/A   Clear
3:55 AM 37.4 °F 29.8 °F 26.6 °F 65% 29.76 in 10.0 mi West 11.5 mph 20.7 mph N/A   Clear
4:15 AM 37.4 °F 27.8 °F 26.6 °F 65% 29.77 in 10.0 mi West 17.3 mph 25.3 mph N/A   Clear
4:55 AM 35.6 °F 27.1 °F 26.6 °F 70% 29.78 in 10.0 mi West 12.7 mph 23.0 mph N/A   Clear
5:15 AM 35.6 °F 26.2 °F 24.8 °F 65% 29.78 in 10.0 mi West 15.0 mph 19.6 mph N/A   Clear
5:35 AM 35.6 °F 29.9 °F 23.0 °F 60% 29.79 in 10.0 mi West 6.9 mph 18.4 mph N/A   Clear
5:55 AM 33.8 °F 24.8 °F 23.0 °F 65% 29.81 in 10.0 mi West 12.7 mph 19.6 mph N/A   Clear
6:15 AM 33.8 °F 24.8 °F 23.0 °F 65% 29.81 in 10.0 mi West 12.7 mph 18.4 mph N/A   Clear
6:35 AM 33.8 °F 26.4 °F 23.0 °F 65% 29.82 in 10.0 mi West 9.2 mph 16.1 mph N/A   Clear
6:55 AM 33.8 °F 25.3 °F 23.0 °F 65% 29.83 in 10.0 mi West 11.5 mph - N/A   Clear
7:15 AM 33.8 °F 25.3 °F 21.2 °F 60% 29.84 in 10.0 mi West 11.5 mph 21.9 mph N/A   Clear
7:35 AM 33.8 °F 23.9 °F 21.2 °F 60% 29.85 in 10.0 mi West 15.0 mph 24.2 mph N/A   Clear
7:55 AM 33.8 °F 25.3 °F 21.2 °F 60% 29.85 in 10.0 mi West 11.5 mph 24.2 mph N/A   Clear
8:15 AM 35.6 °F 27.1 °F 23.0 °F 60% 29.87 in 10.0 mi West 12.7 mph 24.2 mph N/A   Clear
8:35 AM 35.6 °F 28.6 °F 23.0 °F 60% 29.87 in 10.0 mi West 9.2 mph 23.0 mph N/A   Clear
8:55 AM 35.6 °F 27.1 °F 23.0 °F 60% 29.88 in 10.0 mi West 12.7 mph 18.4 mph N/A   Clear
9:15 AM 37.4 °F 29.8 °F 23.0 °F 56% 29.88 in 10.0 mi West 11.5 mph 25.3 mph N/A   Clear
9:35 AM 39.2 °F 29.6 °F 23.0 °F 52% 29.89 in 10.0 mi West 19.6 mph 27.6 mph N/A   Clear
9:55 AM 41.0 °F 32.2 °F 23.0 °F 49% 29.90 in 10.0 mi West 18.4 mph 26.5 mph N/A   Clear
10:15 AM 42.8 °F 34.5 °F 23.0 °F 46% 29.91 in 10.0 mi WNW 18.4 mph 25.3 mph N/A   Clear
10:35 AM 41.0 °F 33.1 °F 23.0 °F 49% 29.91 in 10.0 mi WNW 15.0 mph 23.0 mph N/A   Clear
10:55 AM 41.0 °F 33.1 °F 23.0 °F 49% 29.93 in 10.0 mi West 15.0 mph 26.5 mph N/A   Scattered Clouds
11:15 AM 42.8 °F 34.8 °F 23.0 °F 46% 29.92 in 10.0 mi West 17.3 mph 23.0 mph N/A   Scattered Clouds
11:35 AM 44.6 °F 36.9 °F 23.0 °F 43% 29.92 in 10.0 mi NW 18.4 mph 25.3 mph N/A   Scattered Clouds
11:55 AM 44.6 °F 39.7 °F 23.0 °F 43% 29.93 in 10.0 mi NW 9.2 mph 16.1 mph N/A   Scattered Clouds
12:15 PM 46.4 °F 40.4 °F 23.0 °F 40% 29.91 in 10.0 mi WNW 13.8 mph 26.5 mph N/A   Scattered Clouds
12:35 PM 46.4 °F 40.1 °F 24.8 °F 43% 29.92 in 10.0 mi WNW 15.0 mph 24.2 mph N/A   Clear
12:55 PM 48.2 °F - 24.8 °F 40% 29.91 in 10.0 mi NW 16.1 mph 25.3 mph N/A   Clear
1:15 PM 50.0 °F - 23.0 °F 35% 29.91 in 10.0 mi NW 15.0 mph 31.1 mph N/A   Clear
1:55 PM 50.0 °F - 26.6 °F 40% 29.91 in 10.0 mi WNW 19.6 mph 27.6 mph N/A   Mostly Cloudy
2:15 PM 50.0 °F - 26.6 °F 40% 29.91 in 10.0 mi NW 15.0 mph 25.3 mph N/A   Mostly Cloudy
2:35 PM 50.0 °F - 26.6 °F 40% 29.91 in 10.0 mi NW 16.1 mph 24.2 mph N/A   Mostly Cloudy
2:55 PM 48.2 °F - 26.6 °F 43% 29.93 in 10.0 mi NNW 17.3 mph 28.8 mph N/A   Overcast
3:15 PM 48.2 °F - 26.6 °F 43% 29.94 in 10.0 mi NNW 19.6 mph 31.1 mph N/A   Mostly Cloudy
3:35 PM 46.4 °F 38.7 °F 26.6 °F 46% 29.96 in 10.0 mi NNW 20.7 mph 27.6 mph N/A   Scattered Clouds
3:55 PM 46.4 °F 40.4 °F 26.6 °F 46% 29.96 in 10.0 mi NW 13.8 mph 28.8 mph N/A   Clear
4:15 PM 46.4 °F 40.7 °F 26.6 °F 46% 29.96 in 10.0 mi NNW 12.7 mph 28.8 mph N/A   Clear
4:35 PM 46.4 °F 40.1 °F 26.6 °F 46% 29.98 in 10.0 mi NW 15.0 mph 26.5 mph N/A   Clear
4:55 PM 46.4 °F 39.8 °F 26.6 °F 46% 29.99 in 10.0 mi North 16.1 mph 21.9 mph N/A   Clear
5:15 PM 44.6 °F 38.4 °F 26.6 °F 49% 30.00 in 10.0 mi NNW 12.7 mph 27.6 mph N/A   Clear
5:35 PM 44.6 °F 36.9 °F 28.4 °F 53% 30.02 in 10.0 mi NNW 18.4 mph 26.5 mph N/A   Clear
5:55 PM 42.8 °F 35.1 °F 26.6 °F 53% 30.03 in 10.0 mi NNW 16.1 mph 24.2 mph N/A   Clear
6:15 PM 41.0 °F 33.5 °F 26.6 °F 57% 30.04 in 10.0 mi NNW 13.8 mph 23.0 mph N/A   Clear
6:35 PM 41.0 °F 34.3 °F 28.4 °F 61% 30.06 in 10.0 mi NNW 11.5 mph 18.4 mph N/A   Clear
6:55 PM 39.2 °F 33.0 °F 28.4 °F 65% 30.08 in 10.0 mi NNW 9.2 mph 16.1 mph N/A   Clear
7:15 PM 39.2 °F 33.6 °F 28.4 °F 65% 30.08 in 10.0 mi NNW 8.1 mph 17.3 mph N/A   Clear
7:35 PM 37.4 °F 32.1 °F 28.4 °F 70% 30.09 in 10.0 mi NNW 6.9 mph - N/A   Clear
7:55 PM 37.4 °F 32.1 °F 28.4 °F 70% 30.09 in 10.0 mi NNW 6.9 mph 17.3 mph N/A   Clear
8:15 PM 35.6 °F 30.7 °F 28.4 °F 75% 30.10 in 10.0 mi NNW 5.8 mph - N/A   Clear
8:35 PM 35.6 °F 31.7 °F 28.4 °F 75% 30.10 in 10.0 mi NW 4.6 mph - N/A   Clear
8:55 PM 33.8 °F - 28.4 °F 81% 30.10 in 10.0 mi Calm Calm - N/A   Clear
9:15 PM 35.6 °F 30.7 °F 28.4 °F 75% 30.09 in 10.0 mi NNW 5.8 mph - N/A   Clear
9:35 PM 33.8 °F 28.6 °F 28.4 °F 81% 30.10 in 10.0 mi NW 5.8 mph - N/A   Clear
9:55 PM 33.8 °F 27.7 °F 28.4 °F 81% 30.11 in 10.0 mi NW 6.9 mph - N/A   Clear
10:15 PM 33.8 °F 30.8 °F 28.4 °F 81% 30.12 in 10.0 mi NNW 3.5 mph - N/A   Clear
10:35 PM 33.8 °F 29.6 °F 28.4 °F 81% 30.12 in 10.0 mi NNW 4.6 mph - N/A   Clear
10:55 PM 33.8 °F 29.6 °F 28.4 °F 81% 30.13 in 10.0 mi NW 4.6 mph - N/A   Clear
11:15 PM 32.0 °F 28.7 °F 28.4 °F 87% 30.13 in 10.0 mi NNW 3.5 mph - N/A   Clear
11:35 PM 32.0 °F 27.5 °F 26.6 °F 80% 30.14 in 10.0 mi NW 4.6 mph - N/A   Clear
11:55 PM 32.0 °F 28.7 °F 26.6 °F 80% 30.13 in 10.0 mi North 3.5 mph - N/A   Clear